Simultaneous Nadir Overpasses (SNOs) Predictions

Prediction of SNOs near US between AQUA and NPP Satellite Orbit:

Table of predicted SNOs near US for the next 10.0 days since TLE Epoch: 2/26/2022
Index Date (AQUA) Time (AQUA) AQUA Lat,Lon Date (NPP) Time (NPP) NPP Lat,Lon Distance(km) Time Diff (sec)
1 02/26/2022 06:30:31 45.42, -65.03 02/26/2022 06:30:55 45.91, -67.34 187.89 24
2 02/26/2022 08:08:08 49.93, -87.98 02/26/2022 08:11:06 50.46, -90.80 209.27 178
3 02/28/2022 19:06:12 49.95, -92.20 02/28/2022 19:01:23 49.56, -94.34 159.45 289
4 02/28/2022 20:45:05 49.96,-116.93 02/28/2022 20:42:52 49.51,-119.69 204.87 133
5 03/03/2022 08:34:48 20.02,-101.47 03/03/2022 08:26:28 19.01,-102.28 141.43 500
6 03/03/2022 10:11:29 27.97,-124.27 03/03/2022 10:05:21 28.20,-125.32 106.59 368
7 03/06/2022 07:18:23 49.90, -75.52 03/06/2022 07:20:24 50.40, -78.15 195.29 121
8 03/06/2022 08:57:16 49.89,-100.25 03/06/2022 09:01:52 50.51,-103.47 239.83 276
